Back to Top

Language: 

My Weather Underground Personal Weather Station Historical Data with Graphs...

Delerius Weather Station Historical Data
Daily Summary for March 14, 2017 Units:  Metric    English   Both
« Previous Day
Next Day »
Daily Weekly Monthly Yearly Custom
  High: Low: Average:
Temperature: 15.2 °C 9 °C 11.3 °C
Dew Point: 10.7 °C 5.3 °C 7.8 °C
Humidity: 88 % 55 % 80 %
Wind Speed: 35.4 km/h 3.2 km/h 15.9 km/h
Wind Gust: 41.8 km/h - -
Wind:- - West
Pressure: 1031.4 hPa 1027 hPa -
Precipitation: 0 mm    
Historical Graphs
 
 
Tabular Data for March 14, 2017
Time Temperature Dew Point Pressure Wind Wind Speed Wind Gust Humidity Rainfall Rate (Hourly) solar Conditions
00:05 9.2 °C 6.8 °C 1028.7 hPa West 11.3 km/h 11.3 km/h 85 % 0 mm 0 W/m2
00:15 9.2 °C 6.8 °C 1028.7 hPa West 9.7 km/h 11.3 km/h 85 % 0 mm 0 W/m2
00:20 9.2 °C 6.8 °C 1028.7 hPa West 11.3 km/h 11.3 km/h 85 % 0 mm 0 W/m2
00:30 9.3 °C 6.9 °C 1028.7 hPa WNW 11.3 km/h 11.3 km/h 85 % 0 mm 0 W/m2
00:35 9.3 °C 6.9 °C 1028.7 hPa WNW 11.3 km/h 11.3 km/h 85 % 0 mm 0 W/m2
00:40 9.4 °C 6.8 °C 1028.7 hPa West 9.7 km/h 12.9 km/h 84 % 0 mm 0 W/m2
00:50 9.3 °C 6.8 °C 1028.3 hPa West 9.7 km/h 9.7 km/h 84 % 0 mm 0 W/m2
00:55 9.3 °C 6.9 °C 1028.3 hPa WNW 9.7 km/h 19.3 km/h 85 % 0 mm 0 W/m2
01:00 9.4 °C 6.8 °C 1028.3 hPa West 11.3 km/h 11.3 km/h 84 % 0 mm 0 W/m2
01:10 9.3 °C 6.8 °C 1028.3 hPa West 8 km/h 8 km/h 84 % 0 mm 0 W/m2
01:15 9.2 °C 6.7 °C 1028.3 hPa West 4.8 km/h 17.7 km/h 84 % 0 mm 0 W/m2
01:20 9.2 °C 6.8 °C 1028.3 hPa WNW 3.2 km/h 17.7 km/h 85 % 0 mm 0 W/m2
01:25 9.1 °C 6.7 °C 1028 hPa WNW 3.2 km/h 17.7 km/h 85 % 0 mm 0 W/m2
01:35 9 °C 6.8 °C 1028 hPa WNW 4.8 km/h 17.7 km/h 86 % 0 mm 0 W/m2
01:40 9 °C 6.8 °C 1028 hPa West 6.4 km/h 17.7 km/h 86 % 0 mm 0 W/m2
01:45 9.1 °C 6.9 °C 1027.7 hPa WNW 8 km/h 17.7 km/h 86 % 0 mm 0 W/m2
01:50 9.2 °C 6.9 °C 1027.7 hPa WNW 9.7 km/h 17.7 km/h 86 % 0 mm 0 W/m2
01:55 9.3 °C 7.1 °C 1027.7 hPa West 11.3 km/h 17.7 km/h 86 % 0 mm 0 W/m2
02:00 9.3 °C 7.1 °C 1027.3 hPa WNW 12.9 km/h 17.7 km/h 86 % 0 mm 0 W/m2
02:10 9.3 °C 7.1 °C 1027.3 hPa WNW 11.3 km/h 17.7 km/h 86 % 0 mm 0 W/m2
02:15 9.3 °C 7.1 °C 1027.3 hPa WSW 12.9 km/h 25.7 km/h 86 % 0 mm 0 W/m2
02:20 9.4 °C 7.2 °C 1027.3 hPa WNW 16.1 km/h 20.9 km/h 86 % 0 mm 0 W/m2
02:25 9.5 °C 7.3 °C 1027.3 hPa WSW 20.9 km/h 20.9 km/h 86 % 0 mm 0 W/m2
02:30 9.6 °C 7.2 °C 1027.3 hPa West 19.3 km/h 19.3 km/h 85 % 0 mm 0 W/m2
02:40 9.4 °C 7.1 °C 1027.3 hPa WNW 14.5 km/h 17.7 km/h 85 % 0 mm 0 W/m2
02:45 9.4 °C 7.2 °C 1027.3 hPa West 16.1 km/h 25.7 km/h 86 % 0 mm 0 W/m2
02:55 9.4 °C 7.2 °C 1027.3 hPa WNW 16.1 km/h 19.3 km/h 86 % 0 mm 0 W/m2
03:00 9.4 °C 7.2 °C 1027.3 hPa West 16.1 km/h 20.9 km/h 86 % 0 mm 0 W/m2
03:05 9.4 °C 7.2 °C 1027.3 hPa WNW 16.1 km/h 20.9 km/h 86 % 0 mm 0 W/m2
03:15 9.4 °C 7.2 °C 1027.3 hPa WNW 14.5 km/h 19.3 km/h 86 % 0 mm 0 W/m2
03:20 9.4 °C 7.2 °C 1027.3 hPa WNW 16.1 km/h 19.3 km/h 86 % 0 mm 0 W/m2
03:25 9.3 °C 7.1 °C 1027.3 hPa WNW 14.5 km/h 19.3 km/h 86 % 0 mm 0 W/m2
03:30 9.3 °C 7.3 °C 1027 hPa WNW 14.5 km/h 17.7 km/h 87 % 0 mm 0 W/m2
03:35 9.3 °C 7.2 °C 1027 hPa WNW 14.5 km/h 22.5 km/h 87 % 0 mm 0 W/m2
03:40 9.3 °C 7.2 °C 1027 hPa WNW 14.5 km/h 17.7 km/h 87 % 0 mm 0 W/m2
03:50 9.2 °C 7.2 °C 1027 hPa WNW 11.3 km/h 17.7 km/h 87 % 0 mm 0 W/m2
03:55 9.2 °C 7.2 °C 1027 hPa WNW 11.3 km/h 17.7 km/h 87 % 0 mm 0 W/m2
04:00 9.2 °C 7.3 °C 1027 hPa West 11.3 km/h 11.3 km/h 88 % 0 mm 0 W/m2
04:10 9.4 °C 7.5 °C 1027 hPa WNW 12.9 km/h 12.9 km/h 88 % 0 mm 0 W/m2
04:15 9.6 °C 7.7 °C 1027 hPa WNW 12.9 km/h 17.7 km/h 88 % 0 mm 0 W/m2
04:20 9.8 °C 7.7 °C 1027 hPa West 14.5 km/h 17.7 km/h 87 % 0 mm 0 W/m2
04:25 10.1 °C 7.8 °C 1027 hPa West 16.1 km/h 19.3 km/h 86 % 0 mm 0 W/m2
04:30 10.2 °C 8 °C 1027 hPa WNW 14.5 km/h 14.5 km/h 86 % 0 mm 0 W/m2
04:35 10.3 °C 8.1 °C 1027 hPa WSW 12.9 km/h 16.1 km/h 86 % 0 mm 0 W/m2
04:40 10.4 °C 8.1 °C 1027 hPa West 14.5 km/h 14.5 km/h 85 % 0 mm 0 W/m2
04:45 10.6 °C 8.2 °C 1027 hPa West 16.1 km/h 22.5 km/h 85 % 0 mm 0 W/m2
04:55 10.7 °C 8.1 °C 1027 hPa WNW 16.1 km/h 20.9 km/h 84 % 0 mm 0 W/m2
05:00 10.7 °C 8.1 °C 1027 hPa WNW 16.1 km/h 16.1 km/h 84 % 0 mm 0 W/m2
05:05 10.7 °C 8.1 °C 1027 hPa West 14.5 km/h 17.7 km/h 84 % 0 mm 0 W/m2
05:10 10.7 °C 8.1 °C 1027 hPa WNW 14.5 km/h 14.5 km/h 84 % 0 mm 0 W/m2
05:20 10.7 °C 8.3 °C 1027.3 hPa West 12.9 km/h 19.3 km/h 85 % 0 mm 0 W/m2
05:25 10.8 °C 8.2 °C 1027.3 hPa West 14.5 km/h 19.3 km/h 84 % 0 mm 0 W/m2
05:30 10.9 °C 8.3 °C 1027 hPa WSW 14.5 km/h 19.3 km/h 84 % 0 mm 0 W/m2
05:40 10.9 °C 8.3 °C 1027.3 hPa West 16.1 km/h 16.1 km/h 84 % 0 mm 0 W/m2
05:45 10.9 °C 8.3 °C 1027.3 hPa WSW 14.5 km/h 17.7 km/h 84 % 0 mm 0 W/m2
05:50 10.8 °C 8.2 °C 1027.3 hPa West 14.5 km/h 14.5 km/h 84 % 0 mm 0 W/m2
05:55 10.7 °C 8.1 °C 1027.3 hPa West 14.5 km/h 17.7 km/h 84 % 0 mm 0 W/m2
06:05 10.7 °C 8.2 °C 1027.3 hPa WSW 14.5 km/h 24.1 km/h 85 % 0 mm 0 W/m2
06:10 10.7 °C 8.3 °C 1027.3 hPa West 14.5 km/h 17.7 km/h 85 % 0 mm 0 W/m2
06:15 10.7 °C 8.3 °C 1027.3 hPa WSW 14.5 km/h 17.7 km/h 85 % 0 mm 0 W/m2
06:20 10.7 °C 8.3 °C 1027.3 hPa SSW 16.1 km/h 16.1 km/h 85 % 0 mm 0 W/m2
06:25 10.7 °C 8.3 °C 1027.3 hPa West 14.5 km/h 25.7 km/h 85 % 0 mm 0 W/m2
06:35 10.8 °C 8.2 °C 1027.3 hPa West 16.1 km/h 19.3 km/h 84 % 0 mm 5 W/m2
06:40 10.8 °C 8.2 °C 1027.3 hPa WSW 17.7 km/h 17.7 km/h 84 % 0 mm 7 W/m2
06:45 10.9 °C 8.3 °C 1027.3 hPa West 17.7 km/h 19.3 km/h 84 % 0 mm 9 W/m2
06:50 10.9 °C 8.3 °C 1027.3 hPa WSW 16.1 km/h 16.1 km/h 84 % 0 mm 14 W/m2
06:55 10.9 °C 8.3 °C 1027.3 hPa SW 12.9 km/h 17.7 km/h 84 % 0 mm 14 W/m2
07:00 10.9 °C 8.3 °C 1027.3 hPa West 16.1 km/h 16.1 km/h 84 % 0 mm 21 W/m2
07:10 10.8 °C 8.2 °C 1027.3 hPa WSW 16.1 km/h 20.9 km/h 84 % 0 mm 32 W/m2
07:20 10.8 °C 8.2 °C 1027.7 hPa WSW 14.5 km/h 14.5 km/h 84 % 0 mm 51 W/m2
07:25 10.9 °C 8.3 °C 1027.7 hPa WSW 14.5 km/h 20.9 km/h 84 % 0 mm 56 W/m2
07:30 10.9 °C 8.4 °C 1027.7 hPa WSW 12.9 km/h 24.1 km/h 85 % 0 mm 63 W/m2
07:35 10.9 °C 8.5 °C 1027.7 hPa WSW 14.5 km/h 24.1 km/h 85 % 0 mm 67 W/m2
07:40 10.9 °C 8.5 °C 1027.7 hPa WSW 14.5 km/h 14.5 km/h 85 % 0 mm 90 W/m2
07:45 11 °C 8.6 °C 1027.7 hPa NW 11.3 km/h 17.7 km/h 85 % 0 mm 74 W/m2
07:50 11.1 °C 8.6 °C 1027.3 hPa West 9.7 km/h 17.7 km/h 85 % 0 mm 74 W/m2
07:55 11.1 °C 8.7 °C 1027.7 hPa West 11.3 km/h 17.7 km/h 85 % 0 mm 98 W/m2
08:00 11.2 °C 8.7 °C 1027.3 hPa WSW 11.3 km/h 11.3 km/h 85 % 0 mm 116 W/m2
08:05 11.3 °C 8.8 °C 1027.3 hPa WSW 11.3 km/h 17.7 km/h 85 % 0 mm 121 W/m2
08:15 11.4 °C 8.8 °C 1027.3 hPa West 11.3 km/h 17.7 km/h 84 % 0 mm 149 W/m2
08:20 11.5 °C 8.9 °C 1027.3 hPa WSW 11.3 km/h 11.3 km/h 84 % 0 mm 130 W/m2
08:25 11.6 °C 9 °C 1027.3 hPa West 11.3 km/h 17.7 km/h 84 % 0 mm 144 W/m2
08:30 11.7 °C 8.9 °C 1027.7 hPa WNW 11.3 km/h 11.3 km/h 83 % 0 mm 135 W/m2
08:40 11.8 °C 8.8 °C 1027.7 hPa West 12.9 km/h 12.9 km/h 82 % 0 mm 116 W/m2
08:45 11.8 °C 8.8 °C 1027.7 hPa WSW 14.5 km/h 14.5 km/h 82 % 0 mm 127 W/m2
08:55 12 °C 8.8 °C 1027.7 hPa SW 12.9 km/h 14.5 km/h 81 % 0 mm 162 W/m2
09:00 12.1 °C 8.9 °C 1027.3 hPa West 16.1 km/h 24.1 km/h 81 % 0 mm 176 W/m2
09:05 12.1 °C 8.9 °C 1027.3 hPa WSW 19.3 km/h 24.1 km/h 81 % 0 mm 174 W/m2
09:10 12.1 °C 8.9 °C 1027.3 hPa West 20.9 km/h 20.9 km/h 81 % 0 mm 181 W/m2
09:20 12.2 °C 9 °C 1027.3 hPa West 19.3 km/h 35.4 km/h 81 % 0 mm 192 W/m2
09:25 12.2 °C 9 °C 1027.3 hPa SW 22.5 km/h 35.4 km/h 81 % 0 mm 199 W/m2
09:30 12.2 °C 9.2 °C 1027.3 hPa West 20.9 km/h 20.9 km/h 82 % 0 mm 199 W/m2
09:35 12.2 °C 9.2 °C 1027.3 hPa WSW 17.7 km/h 25.7 km/h 82 % 0 mm 199 W/m2
09:40 12.2 °C 9.2 °C 1027.3 hPa WSW 17.7 km/h 17.7 km/h 82 % 0 mm 206 W/m2
09:45 12.2 °C 9.2 °C 1027.7 hPa WSW 20.9 km/h 20.9 km/h 82 % 0 mm 214 W/m2
09:55 12.1 °C 9.3 °C 1027.3 hPa West 19.3 km/h 20.9 km/h 83 % 0 mm 225 W/m2
10:00 12.2 °C 9.6 °C 1027.7 hPa WSW 19.3 km/h 19.3 km/h 84 % 0 mm 225 W/m2
10:10 12.3 °C 9.7 °C 1027.7 hPa WSW 19.3 km/h 20.9 km/h 84 % 0 mm 257 W/m2
10:15 12.4 °C 9.8 °C 1027.7 hPa WSW 17.7 km/h 25.7 km/h 84 % 0 mm 267 W/m2
10:20 12.4 °C 9.6 °C 1027.7 hPa WSW 17.7 km/h 17.7 km/h 83 % 0 mm 274 W/m2
10:30 12.7 °C 9.8 °C 1027.7 hPa WSW 20.9 km/h 25.7 km/h 83 % 0 mm 336 W/m2
10:35 12.8 °C 9.8 °C 1027.3 hPa WSW 20.9 km/h 25.7 km/h 82 % 0 mm 350 W/m2
10:40 12.9 °C 9.9 °C 1027.3 hPa WSW 22.5 km/h 22.5 km/h 82 % 0 mm 396 W/m2
10:45 12.9 °C 9.9 °C 1027.7 hPa WSW 22.5 km/h 22.5 km/h 82 % 0 mm 343 W/m2
10:50 12.9 °C 9.9 °C 1027.3 hPa WSW 22.5 km/h 30.6 km/h 82 % 0 mm 378 W/m2
10:55 13 °C 10 °C 1027.7 hPa WSW 24.1 km/h 30.6 km/h 82 % 0 mm 438 W/m2
11:05 13.1 °C 10.1 °C 1027.7 hPa West 24.1 km/h 30.6 km/h 82 % 0 mm 265 W/m2
11:10 13.1 °C 10.1 °C 1027.7 hPa WSW 24.1 km/h 24.1 km/h 82 % 0 mm 353 W/m2
11:15 13.1 °C 10.1 °C 1027.7 hPa West 24.1 km/h 24.1 km/h 82 % 0 mm 304 W/m2
11:20 13.1 °C 10.1 °C 1028 hPa WSW 24.1 km/h 24.1 km/h 82 % 0 mm 338 W/m2
11:25 13.1 °C 10.1 °C 1028 hPa NW 24.1 km/h 24.1 km/h 82 % 0 mm 343 W/m2
11:35 13.1 °C 10.1 °C 1028 hPa WSW 25.7 km/h 29 km/h 82 % 0 mm 272 W/m2
11:40 13.1 °C 10.1 °C 1028 hPa West 25.7 km/h 25.7 km/h 82 % 0 mm 265 W/m2
11:45 13.1 °C 10.1 °C 1028 hPa WSW 25.7 km/h 32.2 km/h 82 % 0 mm 244 W/m2
11:50 13 °C 10 °C 1028.3 hPa West 25.7 km/h 25.7 km/h 82 % 0 mm 237 W/m2
11:55 12.9 °C 10.1 °C 1028.3 hPa West 25.7 km/h 25.7 km/h 83 % 0 mm 248 W/m2
12:05 12.9 °C 10.2 °C 1028.3 hPa West 27.4 km/h 33.8 km/h 84 % 0 mm 202 W/m2
12:10 12.9 °C 10.2 °C 1028.3 hPa West 25.7 km/h 25.7 km/h 84 % 0 mm 185 W/m2
12:15 12.8 °C 10.2 °C 1028.7 hPa West 24.1 km/h 25.7 km/h 84 % 0 mm 116 W/m2
12:25 12.7 °C 10.4 °C 1028.3 hPa WSW 19.3 km/h 22.5 km/h 86 % 0 mm 197 W/m2
12:30 12.7 °C 10.4 °C 1028.3 hPa West 19.3 km/h 19.3 km/h 86 % 0 mm 193 W/m2
12:35 12.7 °C 10.4 °C 1028.7 hPa West 19.3 km/h 32.2 km/h 86 % 0 mm 95 W/m2
12:45 12.6 °C 10.4 °C 1028.3 hPa West 17.7 km/h 25.7 km/h 87 % 0 mm 118 W/m2
12:50 12.5 °C 10.4 °C 1028.3 hPa West 17.7 km/h 17.7 km/h 87 % 0 mm 137 W/m2
12:55 12.6 °C 10.4 °C 1028.3 hPa WSW 17.7 km/h 17.7 km/h 87 % 0 mm 197 W/m2
13:00 12.7 °C 10.4 °C 1028.3 hPa West 17.7 km/h 20.9 km/h 86 % 0 mm 214 W/m2
13:05 12.8 °C 10.4 °C 1028.3 hPa West 20.9 km/h 20.9 km/h 85 % 0 mm 327 W/m2
13:15 13.6 °C 10.6 °C 1028.3 hPa West 20.9 km/h 25.7 km/h 82 % 0 mm 605 W/m2
13:20 14.1 °C 10.7 °C 1028.3 hPa West 24.1 km/h 24.1 km/h 80 % 0 mm 580 W/m2
13:25 14.4 °C 10 °C 1028 hPa West 27.4 km/h 30.6 km/h 75 % 0 mm 492 W/m2
13:30 14.4 °C 9.7 °C 1028 hPa NW 30.6 km/h 30.6 km/h 73 % 0 mm 508 W/m2
13:40 14.6 °C 9.4 °C 1028 hPa WSW 35.4 km/h 38.6 km/h 71 % 0 mm 510 W/m2
13:45 14.8 °C 9.6 °C 1028 hPa West 30.6 km/h 38.6 km/h 71 % 0 mm 577 W/m2
13:50 15.1 °C 9.2 °C 1028 hPa WNW 27.4 km/h 27.4 km/h 68 % 0 mm 497 W/m2
13:55 15.1 °C 8.8 °C 1028.3 hPa West 29 km/h 30.6 km/h 66 % 0 mm 494 W/m2
14:00 15 °C 8.4 °C 1028.3 hPa West 32.2 km/h 32.2 km/h 65 % 0 mm 512 W/m2
14:05 15 °C 8 °C 1028.3 hPa WNW 33.8 km/h 33.8 km/h 63 % 0 mm 522 W/m2
14:10 15.1 °C 7.8 °C 1028.3 hPa West 32.2 km/h 41.8 km/h 62 % 0 mm 490 W/m2
14:15 15.1 °C 7.8 °C 1028.3 hPa West 30.6 km/h 41.8 km/h 62 % 0 mm 483 W/m2
14:25 15.1 °C 7.9 °C 1028 hPa WNW 30.6 km/h 30.6 km/h 62 % 0 mm 482 W/m2
14:30 15.2 °C 7.9 °C 1028 hPa NW 30.6 km/h 30.6 km/h 62 % 0 mm 487 W/m2
14:35 15.2 °C 8 °C 1028 hPa WNW 29 km/h 30.6 km/h 62 % 0 mm 468 W/m2
14:40 15.2 °C 8.2 °C 1028.3 hPa West 27.4 km/h 27.4 km/h 63 % 0 mm 461 W/m2
14:45 15.2 °C 8.2 °C 1028.3 hPa West 27.4 km/h 27.4 km/h 63 % 0 mm 413 W/m2
14:55 14.9 °C 7.9 °C 1028.3 hPa WNW 27.4 km/h 27.4 km/h 63 % 0 mm 436 W/m2
15:00 14.9 °C 7.9 °C 1028.3 hPa West 29 km/h 35.4 km/h 63 % 0 mm 353 W/m2
15:05 14.7 °C 7.7 °C 1028.3 hPa West 30.6 km/h 35.4 km/h 63 % 0 mm 202 W/m2
15:10 14.4 °C 7.7 °C 1028.3 hPa WNW 30.6 km/h 30.6 km/h 64 % 0 mm 113 W/m2
15:15 14.2 °C 7.5 °C 1028.7 hPa West 27.4 km/h 30.6 km/h 64 % 0 mm 213 W/m2
15:20 14.3 °C 7.8 °C 1028.7 hPa West 24.1 km/h 24.1 km/h 65 % 0 mm 100 W/m2
15:30 14.2 °C 7.2 °C 1028.7 hPa WNW 25.7 km/h 40.2 km/h 63 % 0 mm 313 W/m2
15:40 14.4 °C 6.7 °C 1028.7 hPa West 27.4 km/h 30.6 km/h 60 % 0 mm 320 W/m2
15:45 14.4 °C 6 °C 1028.7 hPa WNW 27.4 km/h 30.6 km/h 57 % 0 mm 294 W/m2
15:50 14.4 °C 5.8 °C 1028.7 hPa West 25.7 km/h 25.7 km/h 56 % 0 mm 262 W/m2
16:05 14.2 °C 5.3 °C 1028.7 hPa West 27.4 km/h 37 km/h 55 % 0 mm 248 W/m2
19:08 10.9 °C 5.5 °C 1030 hPa West 9.7 km/h 17.7 km/h 69 % 0 mm 0 W/m2
19:13 10.9 °C 5.6 °C 1030 hPa West 8 km/h 17.7 km/h 70 % 0 mm 0 W/m2
19:18 10.8 °C 5.6 °C 1030.4 hPa West 6.4 km/h 14.5 km/h 70 % 0 mm 0 W/m2
19:23 10.7 °C 5.7 °C 1030.4 hPa West 6.4 km/h 12.9 km/h 71 % 0 mm 0 W/m2
19:28 10.7 °C 5.7 °C 1030.4 hPa West 4.8 km/h 11.3 km/h 71 % 0 mm 0 W/m2
19:33 10.6 °C 5.6 °C 1030.4 hPa West 4.8 km/h 11.3 km/h 71 % 0 mm 0 W/m2
19:38 10.5 °C 5.7 °C 1030.4 hPa West 4.8 km/h 11.3 km/h 72 % 0 mm 0 W/m2
19:43 10.4 °C 5.6 °C 1030.4 hPa West 4.8 km/h 11.3 km/h 72 % 0 mm 0 W/m2
19:48 10.4 °C 5.8 °C 1030.4 hPa West 8 km/h 19.3 km/h 73 % 0 mm 0 W/m2
19:53 10.4 °C 5.8 °C 1030.4 hPa West 9.7 km/h 19.3 km/h 73 % 0 mm 0 W/m2
19:58 10.3 °C 5.9 °C 1030.4 hPa West 11.3 km/h 20.9 km/h 74 % 0 mm 0 W/m2
20:13 10.3 °C 5.9 °C 1030.4 hPa West 8 km/h 8 km/h 74 % 0 mm 0 W/m2
20:18 10.3 °C 6.1 °C 1030.4 hPa West 11.3 km/h 17.7 km/h 75 % 0 mm 0 W/m2
20:23 10.3 °C 6.1 °C 1030.4 hPa West 11.3 km/h 19.3 km/h 75 % 0 mm 0 W/m2
20:28 10.3 °C 6.1 °C 1030.7 hPa West 12.9 km/h 19.3 km/h 75 % 0 mm 0 W/m2
20:33 10.3 °C 6.3 °C 1030.7 hPa West 11.3 km/h 17.7 km/h 76 % 0 mm 0 W/m2
20:38 10.3 °C 6.3 °C 1030.7 hPa West 12.9 km/h 25.7 km/h 76 % 0 mm 0 W/m2
20:43 10.3 °C 6.4 °C 1030.7 hPa West 12.9 km/h 25.7 km/h 77 % 0 mm 0 W/m2
20:48 10.3 °C 6.4 °C 1030.7 hPa West 11.3 km/h 20.9 km/h 77 % 0 mm 0 W/m2
20:53 10.3 °C 6.4 °C 1030.7 hPa West 9.7 km/h 16.1 km/h 77 % 0 mm 0 W/m2
20:58 10.2 °C 6.6 °C 1030.7 hPa West 9.7 km/h 16.1 km/h 78 % 0 mm 0 W/m2
21:03 10.2 °C 6.7 °C 1030.7 hPa West 9.7 km/h 16.1 km/h 79 % 0 mm 0 W/m2
21:08 10.2 °C 6.7 °C 1030.7 hPa West 9.7 km/h 16.1 km/h 79 % 0 mm 0 W/m2
21:13 10.2 °C 6.7 °C 1030.7 hPa West 9.7 km/h 19.3 km/h 79 % 0 mm 0 W/m2
21:18 10.2 °C 6.9 °C 1030.7 hPa West 11.3 km/h 19.3 km/h 80 % 0 mm 0 W/m2
21:23 10.2 °C 6.9 °C 1031 hPa West 11.3 km/h 20.9 km/h 80 % 0 mm 0 W/m2
21:28 10.3 °C 7 °C 1031 hPa West 12.9 km/h 22.5 km/h 80 % 0 mm 0 W/m2
21:33 10.4 °C 6.9 °C 1031 hPa West 12.9 km/h 22.5 km/h 79 % 0 mm 0 W/m2
21:38 10.4 °C 6.9 °C 1031 hPa WNW 11.3 km/h 20.9 km/h 79 % 0 mm 0 W/m2
21:43 10.4 °C 6.9 °C 1031 hPa WNW 11.3 km/h 19.3 km/h 79 % 0 mm 0 W/m2
21:48 10.4 °C 6.9 °C 1031 hPa WNW 9.7 km/h 17.7 km/h 79 % 0 mm 0 W/m2
21:53 10.4 °C 6.9 °C 1031 hPa WNW 4.8 km/h 12.9 km/h 79 % 0 mm 0 W/m2
21:59 10.4 °C 6.9 °C 1031 hPa West 11.3 km/h 12.9 km/h 79 % 0 mm 0 W/m2
22:04 10.4 °C 7.1 °C 1031 hPa West 11.3 km/h 20.9 km/h 80 % 0 mm 0 W/m2
22:09 10.4 °C 7.1 °C 1031 hPa West 11.3 km/h 20.9 km/h 80 % 0 mm 0 W/m2
22:18 10.4 °C 7.1 °C 1031 hPa West 12.9 km/h 12.9 km/h 80 % 0 mm 0 W/m2
22:23 10.4 °C 7.1 °C 1031 hPa West 8 km/h 12.9 km/h 80 % 0 mm 0 W/m2
22:28 10.4 °C 6.9 °C 1031 hPa West 9.7 km/h 17.7 km/h 79 % 0 mm 0 W/m2
22:33 10.4 °C 6.9 °C 1031 hPa West 9.7 km/h 17.7 km/h 79 % 0 mm 0 W/m2
22:38 10.4 °C 6.9 °C 1031 hPa West 8 km/h 14.5 km/h 79 % 0 mm 0 W/m2
22:43 10.3 °C 6.8 °C 1031 hPa West 8 km/h 12.9 km/h 79 % 0 mm 0 W/m2
22:48 10.3 °C 6.8 °C 1031 hPa West 8 km/h 17.7 km/h 79 % 0 mm 0 W/m2
22:49 10.3 °C 6.8 °C 1031 hPa West 8 km/h 17.7 km/h 79 % 0 mm 0 W/m2
22:54 10.3 °C 6.6 °C 1031 hPa West 8 km/h 17.7 km/h 78 % 0 mm 0 W/m2
22:59 10.3 °C 6.4 °C 1031 hPa West 8 km/h 16.1 km/h 77 % 0 mm 0 W/m2
23:04 10.3 °C 6.4 °C 1031 hPa West 6.4 km/h 12.9 km/h 77 % 0 mm 0 W/m2
23:09 10.2 °C 6.3 °C 1031 hPa West 6.4 km/h 11.3 km/h 77 % 0 mm 0 W/m2
23:14 10.2 °C 6.3 °C 1031 hPa West 4.8 km/h 11.3 km/h 77 % 0 mm 0 W/m2
23:19 10.2 °C 6.2 °C 1031 hPa West 6.4 km/h 16.1 km/h 76 % 0 mm 0 W/m2
23:24 10.2 °C 6.2 °C 1031 hPa West 9.7 km/h 16.1 km/h 76 % 0 mm 0 W/m2
23:29 10.2 °C 6.2 °C 1031 hPa West 9.7 km/h 16.1 km/h 76 % 0 mm 0 W/m2
23:34 10.1 °C 6.1 °C 1031 hPa WNW 12.9 km/h 19.3 km/h 76 % 0 mm 0 W/m2
23:39 10.1 °C 6.1 °C 1031 hPa WNW 14.5 km/h 22.5 km/h 76 % 0 mm 0 W/m2
23:44 10.1 °C 6.1 °C 1031 hPa WNW 14.5 km/h 22.5 km/h 76 % 0 mm 0 W/m2
23:49 10.1 °C 6.1 °C 1031 hPa West 16.1 km/h 29 km/h 76 % 0 mm 0 W/m2
23:54 10.1 °C 6.1 °C 1031 hPa West 16.1 km/h 29 km/h 76 % 0 mm 0 W/m2
23:59 10.1 °C 6.1 °C 1031.4 hPa West 14.5 km/h 24.1 km/h 76 % 0 mm 0 W/m2
Delerius-Weather
Compliments of Weather Underground - 1.75 mb

Data updates at regular intervals.